Weather History for Lake Charles Regional, LA

Change the Weather History Date:

Monday, February 25, 2013

  Actual Average Record
Temperature  
Mean Temperature 63 °F 57 °F  
Max Temperature 75 °F 67 °F 83 °F (1906)
Min Temperature 50 °F 48 °F 23 °F (1914)
Degree Days  
Heating Degree Days 2 8  
Month to date heating degree days 153 267  
Since 1 July heating degree days 935 1258  
Cooling Degree Days 0 1  
Month to date cooling degree days 6 3  
Year to date cooling degree days 30 13  
Growing Degree Days 13 (Base 50)    
Moisture  
Dew Point 59 °F    
Average Humidity 65    
Maximum Humidity 100    
Minimum Humidity 29    
Precipitation  
Precipitation 0.23 in 0.11 in 2.47 in (1993)
Month to date precipitation 5.21 3.12  
Year to date precipitation 16.59 8.35  
Snow  
Snow 0.00 in 0.00 in 0.00 in ()
Month to date snowfall 0.0 0.1  
Since 1 July snowfall 0.0 0.1  
Snow Depth 0.00 in    
Sea Level Pressure  
Sea Level Pressure 29.58 in    
Wind  
Wind Speed 9 mph (South)    
Max Wind Speed 23 mph    
Max Gust Speed 37 mph    
Visibility 6 miles    
Events Fog , Rain , Thunderstorm    
T = Trace of Precipitation, MM = Missing Value Source: NWS Daily Summary

Daily Weather History Graph

Daily Weather History Graph

Search for Another Location

Airport:

Trip Planner

Search our weather history database for the weather conditions in past years. The results will help you decide how hot, cold, wet, or windy it might be!

Date:

Astronomy

Feb. 25, 2013 Rise Set
Actual Time 6:42 AM CST 6:09 PM CST
Civil Twilight 6:18 AM CST 6:33 PM CST
Nautical Twilight 5:50 AM CST 7:01 PM CST
Astronomical Twilight 5:23 AM CST 7:29 PM CST
Moon 6:18 PM CST 6:16 AM CST
Length of Visible Light 12h 14m
Length of Day
11h 26m
Full, 100% of the Moon is Illuminated
Feb 25
Full
Feb 25
Full
Mar 4
Last Quarter
Mar 11
New
Mar 19
First Quarter

Hourly Weather History & Observations

Time (CST) Temp. Dew Point Humidity Pressure Visibility Wind Dir Wind Speed Gust Speed Precip Events Conditions
12:53 AM 61.0 °F 59.0 °F 93% 29.71 in 10.0 mi East 6.9 mph - N/A   Overcast
1:53 AM 62.1 °F 59.0 °F 90% 29.69 in 9.0 mi East 6.9 mph - N/A   Overcast
2:53 AM 62.1 °F 60.1 °F 93% 29.65 in 9.0 mi East 8.1 mph - N/A   Overcast
3:43 AM 62.6 °F 60.8 °F 94% 29.61 in 10.0 mi ESE 8.1 mph - N/A   Overcast
3:53 AM 63.0 °F 60.1 °F 90% 29.64 in 10.0 mi East 6.9 mph - N/A   Overcast
4:53 AM 63.0 °F 61.0 °F 93% 29.64 in 9.0 mi East 4.6 mph - N/A   Overcast
5:20 AM 64.4 °F 62.6 °F 94% 29.62 in 10.0 mi East 4.6 mph - N/A   Overcast
5:53 AM 64.0 °F 62.1 °F 93% 29.64 in 10.0 mi East 4.6 mph - N/A   Overcast
6:53 AM 64.0 °F 62.1 °F 93% 29.64 in 5.0 mi ESE 9.2 mph - N/A   Overcast
7:16 AM 64.4 °F 62.6 °F 94% 29.62 in 1.8 mi SE 6.9 mph - N/A   Overcast
7:33 AM 64.4 °F 62.6 °F 94% 29.62 in 0.5 mi ESE 8.1 mph - N/A Fog Fog
7:53 AM 64.9 °F 64.0 °F 97% 29.66 in 0.5 mi Calm Calm - N/A Fog Fog
8:05 AM 64.4 °F 64.4 °F 100% 29.64 in 0.2 mi Calm Calm - N/A Fog Fog
8:53 AM 66.0 °F 64.0 °F 93% 29.67 in 0.2 mi ESE 4.6 mph - N/A Fog Fog
9:34 AM 68.0 °F 66.2 °F 94% 29.64 in 0.5 mi ESE 5.8 mph - 0.01 in Fog , Rain Rain
9:44 AM 68.0 °F 66.2 °F 94% 29.64 in 1.0 mi SE 6.9 mph - 0.01 in Rain Light Rain
9:53 AM 68.0 °F 66.0 °F 93% 29.66 in 0.5 mi ESE 4.6 mph - 0.01 in Fog Fog
10:39 AM 69.8 °F 68.0 °F 94% 29.61 in 1.8 mi SE 8.1 mph - N/A   Overcast
10:53 AM 70.0 °F 69.1 °F 97% 29.63 in 1.0 mi SE 5.8 mph - N/A   Overcast
11:01 AM 69.8 °F 68.0 °F 94% 29.61 in 1.2 mi SSE 9.2 mph - N/A Thunderstorm Overcast
11:14 AM 69.8 °F 66.2 °F 88% 29.59 in 0.5 mi SE 9.2 mph - N/A Fog , Thunderstorm Unknown
11:32 AM 69.8 °F 68.0 °F 94% 29.58 in 1.0 mi SE 8.1 mph - 0.00 in Rain Light Rain
11:37 AM 69.8 °F 69.8 °F 100% 29.57 in 3.0 mi SE 6.9 mph - 0.00 in Rain Light Rain
11:53 AM 70.0 °F 68.0 °F 93% 29.59 in 10.0 mi South 5.8 mph - 0.00 in   Overcast
12:53 PM 72.0 °F 69.1 °F 91% 29.52 in 7.0 mi South 11.5 mph 18.4 mph N/A   Overcast
1:21 PM 73.4 °F 69.8 °F 88% 29.48 in 9.0 mi SSW 12.7 mph 24.2 mph N/A Thunderstorm Mostly Cloudy
1:37 PM 73.4 °F 69.8 °F 88% 29.46 in 8.0 mi SSW 13.8 mph 23.0 mph N/A   Mostly Cloudy
1:53 PM 73.0 °F 69.1 °F 87% 29.50 in 7.0 mi South 12.7 mph 21.9 mph 0.00 in Rain Light Rain
2:29 PM 69.8 °F 66.2 °F 88% 29.46 in 1.8 mi SSW 15.0 mph 19.6 mph 0.04 in Rain Heavy Rain
2:34 PM 69.8 °F 66.2 °F 88% 29.45 in 0.8 mi SSW 13.8 mph 23.0 mph 0.15 in Rain Heavy Rain
2:36 PM 69.8 °F 66.2 °F 88% 29.45 in 1.0 mi SSW 12.7 mph 23.0 mph 0.21 in Rain , Thunderstorm Rain
2:42 PM 69.8 °F 66.2 °F 88% 29.45 in 3.0 mi SSW 12.7 mph 23.0 mph 0.22 in Rain , Thunderstorm Light Rain
2:53 PM 69.1 °F 66.0 °F 90% 29.46 in 8.0 mi SSW 10.4 mph 19.6 mph 0.22 in   Mostly Cloudy
3:01 PM 69.8 °F 66.2 °F 88% 29.45 in 8.0 mi SW 10.4 mph - N/A   Mostly Cloudy
3:18 PM 71.6 °F 66.2 °F 83% 29.45 in 7.0 mi SW 8.1 mph - N/A   Mostly Cloudy
3:23 PM 71.6 °F 68.0 °F 88% 29.45 in 7.0 mi SW 9.2 mph - N/A   Mostly Cloudy
3:34 PM 71.6 °F 68.0 °F 88% 29.44 in 8.0 mi WSW 12.7 mph 18.4 mph N/A   Mostly Cloudy
3:44 PM 73.4 °F 64.4 °F 73% 29.45 in 10.0 mi WSW 13.8 mph 20.7 mph N/A   Mostly Cloudy
3:53 PM 73.0 °F 61.0 °F 66% 29.48 in 10.0 mi WSW 13.8 mph 20.7 mph N/A   Mostly Cloudy
4:53 PM 72.0 °F 46.9 °F 41% 29.49 in 10.0 mi West 13.8 mph 21.9 mph N/A   Clear
5:53 PM 69.1 °F 42.1 °F 38% 29.50 in 10.0 mi WSW 11.5 mph - N/A   Clear
6:53 PM 66.0 °F 34.0 °F 30% 29.53 in 10.0 mi West 13.8 mph 21.9 mph N/A   Clear
7:53 PM 63.0 °F 30.0 °F 29% 29.57 in 10.0 mi West 10.4 mph 23.0 mph N/A   Clear
8:53 PM 59.0 °F 30.9 °F 35% 29.62 in 10.0 mi West 12.7 mph 25.3 mph N/A   Clear
9:53 PM 55.9 °F 30.0 °F 37% 29.66 in 10.0 mi West 11.5 mph 24.2 mph N/A   Clear
10:53 PM 52.0 °F 30.0 °F 43% 29.69 in 10.0 mi West 18.4 mph 32.2 mph N/A   Clear
11:53 PM 51.1 °F 30.0 °F 44% 29.70 in 10.0 mi West 18.4 mph 29.9 mph N/A   Clear